Thermopolis, WY

7:54 PM MDT on September 25, 2017 (GMT -0600)
Thermopolis

Weather History for KTBX - September, 2013

Change the Weather History Date:

Friday, September 27, 2013

  Actual Average (KWRL) Record (KWRL)
Temperature  
Mean Temperature 29 °F -  
Max Temperature 30 °F 71 °F 90 °F (2001)
Min Temperature 28 °F 39 °F 26 °F (1964)
Degree Days  
Heating Degree Days 36    
Moisture  
Dew Point 29 °F    
Average Humidity 96    
Maximum Humidity 100    
Minimum Humidity 93    
Precipitation  
Precipitation 0.00 in - - ()
Sea Level Pressure  
Sea Level Pressure 30.00 in    
Wind  
Wind Speed 20 mph (WNW)    
Max Wind Speed 25 mph    
Max Gust Speed -    
Averages and records for this station are not official NWS values.
T = Trace of Precipitation, MM = Missing Value Source: NWS Daily Summary

Daily Weather History Graph

Daily Weather History Graph

Search for Another Location

Airport or City:

Trip Planner

Search our weather history database for the weather conditions in past years. The results will help you decide how hot, cold, wet, or windy it might be!

Date:

Astronomy

Sep. 27, 2013 Rise Set
Actual Time 7:06 AM MDT 7:00 PM MDT
Civil Twilight 6:37 AM MDT 7:29 PM MDT
Nautical Twilight 6:04 AM MDT 8:02 PM MDT
Astronomical Twilight 5:30 AM MDT 8:36 PM MDT
Moon No Moon Rise 2:50 PM MDT (9/27)
Length of Visible Light 12h 51m
Length of Day
11h 54m
Last Quarter, 44% of the Moon is Illuminated
Sep 27
Last Quarter
Oct 4
New
Oct 11
First Quarter
Oct 18
Full
Oct 26
Last Quarter

Hourly Weather History & Observations

Time (MDT) Temp. Windchill Dew Point Humidity Pressure Visibility Wind Dir Wind Speed Gust Speed Precip Events Conditions
12:15 AM 30.2 °F 16.5 °F 28.4 °F 93% 29.99 in - NW 24.2 mph - N/A   Overcast
12:35 AM 30.2 °F 17.4 °F 28.4 °F 93% 30.00 in - NW 20.7 mph - N/A   Overcast
12:55 AM 28.4 °F 14.4 °F 28.4 °F 100% 29.98 in - NW 23.0 mph - N/A   Overcast
1:15 AM 30.2 °F 17.8 °F 28.4 °F 93% 30.00 in - NW 19.6 mph - N/A   Overcast
1:35 AM 30.2 °F 16.8 °F 28.4 °F 93% 30.00 in - WNW 23.0 mph - N/A   Unknown
1:55 AM 30.2 °F - 28.4 °F 93% 29.99 in - North - - N/A   Overcast
2:15 AM 30.2 °F 17.1 °F 28.4 °F 93% 30.00 in - WNW 21.9 mph - N/A   Overcast
2:35 AM 30.2 °F 16.5 °F 28.4 °F 93% 29.97 in - NW 24.2 mph - N/A   Overcast
2:55 AM 30.2 °F 16.8 °F 28.4 °F 93% 29.96 in - NW 23.0 mph - N/A   Overcast
3:15 AM 30.2 °F 16.2 °F 28.4 °F 93% 29.96 in - NW 25.3 mph - N/A   Overcast
3:35 AM 30.2 °F 16.5 °F 28.4 °F 93% 29.95 in - NW 24.2 mph - N/A   Overcast
3:55 AM 30.2 °F 16.8 °F 28.4 °F 93% 29.96 in - NW 23.0 mph - N/A   Overcast
4:15 AM 30.2 °F 17.1 °F 28.4 °F 93% 29.97 in - WNW 21.9 mph - N/A   Overcast
4:35 AM 30.2 °F 17.1 °F 28.4 °F 93% 29.97 in - WNW 21.9 mph - N/A   Overcast
4:55 AM 30.2 °F 17.4 °F 28.4 °F 93% 29.96 in - NW 20.7 mph - N/A   Overcast
5:15 AM 30.2 °F 17.8 °F 28.4 °F 93% 29.97 in - NW 19.6 mph - N/A   Overcast
5:35 AM 30.2 °F 18.1 °F 28.4 °F 93% 29.96 in - NW 18.4 mph - N/A   Overcast
5:55 AM 30.2 °F 17.8 °F 28.4 °F 93% 29.97 in - NW 19.6 mph - N/A   Overcast
6:15 AM 30.2 °F 18.1 °F 28.4 °F 93% 29.97 in - WNW 18.4 mph - N/A   Overcast
6:35 AM 30.2 °F 18.5 °F 28.4 °F 93% 29.97 in - NW 17.3 mph - N/A   Overcast
6:55 AM 30.2 °F 17.1 °F 28.4 °F 93% 29.95 in - NW 21.9 mph - N/A   Overcast
7:15 AM 30.2 °F 17.1 °F 28.4 °F 93% 29.97 in - NW 21.9 mph - N/A   Overcast
7:35 AM 28.4 °F 15.1 °F 28.4 °F 100% 29.97 in - NW 20.7 mph - N/A   Overcast
7:55 AM 30.2 °F 18.1 °F 28.4 °F 93% 29.97 in - NW 18.4 mph - N/A   Overcast
8:15 AM 28.4 °F 15.8 °F 28.4 °F 100% 29.98 in - NW 18.4 mph - N/A   Overcast
9:15 AM 28.4 °F 14.7 °F 28.4 °F 100% 29.98 in - NW 21.9 mph - N/A   Overcast
9:35 AM 28.4 °F 15.4 °F 28.4 °F 100% 29.99 in - NW 19.6 mph - N/A   Overcast
9:55 AM 28.4 °F 14.7 °F 28.4 °F 100% 29.99 in - NW 21.9 mph - N/A   Overcast
10:15 AM 28.4 °F 14.4 °F 28.4 °F 100% 29.98 in - NW 23.0 mph - N/A   Overcast
10:35 AM 28.4 °F 15.1 °F 28.4 °F 100% 29.99 in - NW 20.7 mph - N/A   Overcast
10:55 AM 28.4 °F 15.1 °F 28.4 °F 100% 29.99 in - NW 20.7 mph - N/A   Overcast
11:15 AM 28.4 °F 16.2 °F 28.4 °F 100% 30.00 in - NW 17.3 mph - N/A   Overcast
11:35 AM 30.2 °F 17.8 °F 28.4 °F 93% 30.00 in - NW 19.6 mph - N/A   Overcast
11:55 AM 30.2 °F 17.4 °F 28.4 °F 93% 30.00 in - NW 20.7 mph - N/A   Overcast
12:15 PM 30.2 °F 17.4 °F 28.4 °F 93% 30.00 in - WNW 20.7 mph - N/A   Overcast
1:55 PM 30.2 °F 18.1 °F 30.2 °F 100% 30.01 in - NW 18.4 mph - N/A   Unknown
2:15 PM 30.2 °F 17.8 °F 30.2 °F 100% 30.00 in - WNW 19.6 mph - N/A   Overcast
2:35 PM 30.2 °F - 30.2 °F 100% 30.00 in - North - - N/A   Overcast
2:55 PM 30.2 °F 17.8 °F 30.2 °F 100% 30.01 in - WNW 19.6 mph - N/A   Overcast
3:15 PM 30.2 °F 18.5 °F 30.2 °F 100% 30.02 in - WNW 17.3 mph - N/A   Overcast
3:35 PM 30.2 °F 19.3 °F 30.2 °F 100% 30.02 in - WNW 15.0 mph - N/A   Overcast
3:55 PM - - - N/A% 30.03 in - WNW 11.5 mph - N/A   Overcast
4:15 PM - - - N/A% 30.04 in - WNW 8.1 mph - N/A   Overcast
6:15 PM - - - N/A% 30.07 in - SE 6.9 mph - N/A   Unknown
6:35 PM - - - N/A% 30.07 in - SE 5.8 mph - N/A   Overcast
6:55 PM - - - N/A% 30.08 in - SSE 6.9 mph - N/A   Overcast
7:15 PM - - - N/A% 30.08 in - SE 8.1 mph - N/A   Overcast
7:35 PM - - - N/A% 30.08 in - SE 10.4 mph - N/A   Overcast
7:55 PM - - - N/A% 30.08 in - SE 9.2 mph - N/A   Overcast
8:15 PM - - - N/A% 30.09 in - South 11.5 mph - N/A   Overcast
8:35 PM - - - N/A% 30.09 in - SSE 8.1 mph - N/A   Overcast
11:35 PM - - - N/A% 30.10 in - SSE 8.1 mph - N/A   Unknown
11:55 PM - - - N/A% 30.09 in - SSE 9.2 mph - N/A   Unknown